Location: Boiro
(42.6475°N, 8.8834°W)
Time: 18:34:05
(UTC+01:00)

Transit 2A Rocket - Pass Details

Date: 06 December 2021
Orbit: 584 x 918 km, 66.7° (Epoch: 19 January)

Event Time Altitude Azimuth Distance (km) Brightness Sun altitude
Rises 07:35:25 0° 178° (S) 3,272 8.5 -13.5°
Reaches altitude 10° 07:38:00 10° 168° (SSE) 2,400 8.0 -13.0°
Maximum altitude 07:42:48 30° 108° (ESE) 1,488 7.4 -12.2°
Drops below altitude 10° 07:47:54 10° 49° (NE) 2,568 8.1 -11.3°
Sets 07:50:45 0° 40° (NE) 3,539 8.7 -10.8°
